Annapolis Naval Academy, MD

3:11 PM EST on December 05, 2019 (GMT -0500)
Annapolis Naval Academy

Weather History for KNAK - October, 2019

Change the Weather History Date:

Wednesday, October 23, 2019

  Actual Average (KBWI) Record (KBWI)
Temperature  
Mean Temperature 57 °F -  
Max Temperature 66 °F 66 °F 91 °F (1947)
Min Temperature 48 °F 43 °F 28 °F (1997)
Degree Days  
Heating Degree Days 8    
Growing Degree Days 7 (Base 50)    
Moisture  
Dew Point 45 °F    
Average Humidity 66    
Maximum Humidity 93    
Minimum Humidity 36    
Precipitation  
Precipitation 0.00 in - - ()
Sea Level Pressure  
Sea Level Pressure 30.04 in    
Wind  
Wind Speed 5 mph (WNW)    
Max Wind Speed 12 mph    
Max Gust Speed 18 mph    
Visibility 10 miles    
Events      
Averages and records for this station are not official NWS values.
T = Trace of Precipitation, MM = Missing Value Source: NWS Daily Summary

Daily Weather History Graph

Daily Weather History Graph

Search for Another Location

Airport or City:

Astronomy

Oct. 23, 2019 Rise Set
Actual Time 7:23 AM EDT 6:16 PM EDT
Civil Twilight 6:56 AM EDT 6:43 PM EDT
Nautical Twilight 6:24 AM EDT 7:14 PM EDT
Astronomical Twilight 5:54 AM EDT 7:45 PM EDT
Moon 1:43 AM EDT (10/23) 4:02 PM EDT (10/23)
Length of Visible Light 11h 47m
Length of Day
10h 53m
Waning Crescent, 27% of the Moon is Illuminated
Oct 23
Waning Crescent
Oct 27
New
Nov 4
First Quarter
Nov 12
Full
Nov 19
Last Quarter

Hourly Weather History & Observations

Time (EDT) Temp. Dew Point Humidity Pressure Visibility Wind Dir Wind Speed Gust Speed Precip Events Conditions
12:54 AM 57.9 °F 55.9 °F 93% 29.85 in 10.0 mi West 4.6 mph - N/A   Scattered Clouds
1:54 AM 57.0 °F 54.0 °F 89% 29.85 in 10.0 mi West 4.6 mph - N/A   Clear
2:54 AM 55.0 °F 53.1 °F 93% 29.86 in 10.0 mi West 3.5 mph - N/A   Clear
3:54 AM 57.0 °F 53.1 °F 87% 29.88 in 10.0 mi NW 4.6 mph - N/A   Clear
4:54 AM 55.0 °F 51.1 °F 86% 29.91 in 10.0 mi WNW 3.5 mph - N/A   Clear
5:54 AM 55.0 °F 51.1 °F 86% 29.95 in 10.0 mi NW 3.5 mph - N/A   Clear
6:23 AM - - N/A% - - North - - N/A   Unknown
7:54 AM 53.1 °F 48.0 °F 83% 30.01 in 10.0 mi WNW 3.5 mph - N/A   Clear
8:54 AM 55.9 °F 48.0 °F 75% 30.03 in 10.0 mi WNW 4.6 mph - N/A   Clear
9:00 AM - - N/A% - - North - - N/A   Unknown
9:54 AM 59.0 °F 46.9 °F 64% 30.05 in 10.0 mi West 6.9 mph - N/A   Clear
10:54 AM 61.0 °F 45.0 °F 56% 30.07 in 10.0 mi WNW 9.2 mph 17.3 mph N/A   Clear
12:54 PM 63.0 °F 39.9 °F 43% 30.06 in 10.0 mi West 11.5 mph 18.4 mph N/A   Clear
1:54 PM 64.9 °F 39.0 °F 39% 30.06 in 10.0 mi West 11.5 mph 18.4 mph N/A   Clear
2:54 PM 64.9 °F 37.0 °F 36% 30.06 in 10.0 mi NW 11.5 mph 17.3 mph N/A   Clear
3:54 PM 66.0 °F 37.9 °F 36% 30.08 in 10.0 mi West 8.1 mph - N/A   Clear
4:54 PM 66.0 °F 37.9 °F 36% 30.08 in 10.0 mi West 6.9 mph - N/A   Clear
5:54 PM 64.9 °F 37.0 °F 36% 30.11 in 10.0 mi West 5.8 mph - N/A   Clear
6:54 PM 61.0 °F 39.0 °F 44% 30.14 in 10.0 mi WNW 4.6 mph - N/A   Clear
7:54 PM 57.9 °F 48.0 °F 70% 30.17 in 10.0 mi Calm Calm - N/A   Clear
8:54 PM 54.0 °F 46.0 °F 75% 30.19 in 10.0 mi Calm Calm - N/A   Clear
10:54 PM 48.9 °F 43.0 °F 80% 30.23 in 10.0 mi West 3.5 mph - N/A   Clear
11:54 PM 50.0 °F 42.1 °F 74% 30.22 in 10.0 mi Calm Calm - N/A   Clear